TimeCST,TemperatureF,Dew PointF,Humidity,Sea Level PressureIn,VisibilityMPH,Wind Direction,Wind SpeedMPH,Gust SpeedMPH,PrecipitationIn,Events,Conditions,WindDirDegrees,DateUTC
12:15 AM,15.8,12.2,86,30.00,2.0,SW,9.2,-,N/A,,Overcast,220,2013-01-02 06:15:00
12:35 AM,15.8,14.0,93,29.99,2.0,WSW,8.1,-,N/A,,Overcast,240,2013-01-02 06:35:00
12:55 AM,15.8,14.0,93,29.99,3.0,WSW,10.4,-,N/A,,Overcast,240,2013-01-02 06:55:00
1:15 AM,15.8,14.0,93,29.98,3.0,SW,8.1,-,N/A,,Overcast,230,2013-01-02 07:15:00
1:35 AM,15.8,14.0,93,29.98,3.0,SSW,6.9,-,N/A,,Overcast,210,2013-01-02 07:35:00
1:55 AM,15.8,14.0,93,29.98,2.0,SSW,6.9,-,N/A,,Overcast,210,2013-01-02 07:55:00
2:15 AM,15.8,14.0,93,29.98,2.5,SSW,9.2,-,N/A,,Overcast,210,2013-01-02 08:15:00
2:35 AM,15.8,14.0,93,29.98,3.0,SSW,9.2,-,N/A,,Overcast,200,2013-01-02 08:35:00
2:55 AM,15.8,14.0,93,29.98,2.0,South,10.4,-,N/A,,Overcast,190,2013-01-02 08:55:00
3:15 AM,15.8,12.2,86,29.97,1.5,South,11.5,-,N/A,,Overcast,190,2013-01-02 09:15:00
3:35 AM,15.8,12.2,86,29.96,1.2,South,11.5,-,N/A,,Overcast,190,2013-01-02 09:35:00
3:55 AM,15.8,12.2,86,29.95,1.2,South,12.7,-,N/A,,Overcast,190,2013-01-02 09:55:00
4:15 AM,15.8,12.2,86,29.94,1.0,South,11.5,-,N/A,,Overcast,190,2013-01-02 10:15:00
4:35 AM,15.8,12.2,86,29.93,0.8,SSW,12.7,-,N/A,,Overcast,200,2013-01-02 10:35:00
4:55 AM,15.8,12.2,86,29.94,1.8,South,10.4,-,N/A,,Overcast,190,2013-01-02 10:55:00
5:15 AM,15.8,12.2,86,29.93,1.5,SSW,10.4,-,N/A,,Overcast,200,2013-01-02 11:15:00
5:35 AM,12.2,8.6,85,29.93,5.0,South,10.4,-,N/A,,Mostly Cloudy,180,2013-01-02 11:35:00
5:55 AM,10.4,6.8,85,29.93,5.0,South,8.1,-,N/A,,Clear,180,2013-01-02 11:55:00
6:15 AM,8.6,5.0,85,29.93,7.0,South,5.8,-,N/A,,Clear,180,2013-01-02 12:15:00
6:35 AM,8.6,3.2,79,29.93,8.0,South,9.2,-,N/A,,Mostly Cloudy,170,2013-01-02 12:35:00
6:55 AM,8.6,3.2,79,29.93,8.0,South,4.6,-,N/A,,Mostly Cloudy,190,2013-01-02 12:55:00
7:15 AM,6.8,3.2,85,29.94,9.0,South,4.6,-,N/A,,Scattered Clouds,180,2013-01-02 13:15:00
7:35 AM,6.8,3.2,85,29.93,9.0,SSE,5.8,-,N/A,,Mostly Cloudy,150,2013-01-02 13:35:00
7:55 AM,6.8,3.2,85,29.93,9.0,SSE,8.1,-,N/A,,Mostly Cloudy,160,2013-01-02 13:55:00
8:15 AM,6.8,1.4,79,29.93,9.0,SSE,8.1,-,N/A,,Mostly Cloudy,160,2013-01-02 14:15:00
8:35 AM,5.0,1.4,85,29.93,8.0,South,6.9,-,N/A,,Partly Cloudy,190,2013-01-02 14:35:00
8:55 AM,5.0,1.4,85,29.93,8.0,SSW,4.6,-,N/A,,Clear,200,2013-01-02 14:55:00
9:15 AM,6.8,3.2,85,29.93,8.0,South,6.9,-,N/A,,Clear,180,2013-01-02 15:15:00
9:35 AM,6.8,3.2,85,29.94,7.0,South,5.8,-,N/A,,Mostly Cloudy,180,2013-01-02 15:35:00
9:55 AM,6.8,6.8,100,29.94,7.0,South,4.6,-,N/A,,Overcast,190,2013-01-02 15:55:00
10:15 AM,10.4,6.8,85,29.95,6.0,SSW,4.6,-,N/A,,Overcast,200,2013-01-02 16:15:00
10:35 AM,12.2,10.4,92,29.95,7.0,WSW,5.8,-,N/A,,Overcast,240,2013-01-02 16:35:00
10:55 AM,15.8,12.2,86,29.94,7.0,WSW,4.6,-,N/A,,Overcast,240,2013-01-02 16:55:00
11:15 AM,15.8,14.0,93,29.94,7.0,West,6.9,-,N/A,,Overcast,260,2013-01-02 17:15:00
11:35 AM,17.6,15.8,93,29.94,5.0,WSW,8.1,-,N/A,,Overcast,250,2013-01-02 17:35:00
11:55 AM,19.4,17.6,93,29.94,5.0,WSW,8.1,-,N/A,,Overcast,250,2013-01-02 17:55:00
12:15 PM,19.4,17.6,93,29.93,8.0,West,6.9,-,N/A,,Overcast,260,2013-01-02 18:15:00
12:35 PM,21.2,19.4,93,29.92,8.0,West,5.8,-,N/A,,Overcast,260,2013-01-02 18:35:00
12:55 PM,21.2,19.4,93,29.93,9.0,WSW,10.4,-,N/A,,Overcast,250,2013-01-02 18:55:00
1:15 PM,23.0,19.4,86,29.93,9.0,West,6.9,-,N/A,,Overcast,260,2013-01-02 19:15:00
1:35 PM,24.8,21.2,86,29.93,8.0,West,6.9,-,N/A,,Overcast,260,2013-01-02 19:35:00
1:55 PM,26.6,21.2,80,29.93,7.0,West,9.2,-,N/A,,Overcast,260,2013-01-02 19:55:00
2:15 PM,26.6,23.0,86,29.93,9.0,West,9.2,-,N/A,,Overcast,270,2013-01-02 20:15:00
2:35 PM,26.6,23.0,86,29.93,10.0,West,8.1,-,N/A,,Overcast,270,2013-01-02 20:35:00
2:55 PM,28.4,24.8,86,29.94,10.0,West,8.1,-,N/A,,Overcast,280,2013-01-02 20:55:00
3:15 PM,28.4,24.8,86,29.94,10.0,WNW,9.2,-,N/A,,Overcast,300,2013-01-02 21:15:00
3:35 PM,28.4,24.8,86,29.95,10.0,WNW,10.4,-,N/A,,Overcast,300,2013-01-02 21:35:00
3:55 PM,30.2,24.8,80,29.95,10.0,WNW,10.4,-,N/A,,Overcast,300,2013-01-02 21:55:00
4:15 PM,30.2,24.8,80,29.96,10.0,WNW,10.4,-,N/A,,Overcast,300,2013-01-02 22:15:00
4:35 PM,30.2,24.8,80,29.97,10.0,WNW,11.5,-,N/A,,Overcast,300,2013-01-02 22:35:00
5:15 PM,30.2,24.8,80,29.99,7.0,WNW,11.5,-,N/A,,Overcast,290,2013-01-02 23:15:00
5:35 PM,30.2,26.6,86,29.99,8.0,NW,11.5,-,N/A,,Overcast,310,2013-01-02 23:35:00
5:55 PM,28.4,24.8,86,30.00,9.0,NW,17.3,-,N/A,,Overcast,320,2013-01-02 23:55:00
6:15 PM,28.4,23.0,80,30.01,10.0,NW,13.8,-,N/A,,Overcast,320,2013-01-03 00:15:00
6:55 PM,26.6,21.2,80,30.03,10.0,NW,12.7,-,N/A,,Mostly Cloudy,310,2013-01-03 00:55:00
7:15 PM,24.8,19.4,80,30.03,10.0,NW,16.1,-,N/A,,Mostly Cloudy,310,2013-01-03 01:15:00
7:35 PM,24.8,19.4,80,30.04,10.0,NW,11.5,-,N/A,,Overcast,310,2013-01-03 01:35:00
7:55 PM,24.8,19.4,80,30.04,10.0,NW,13.8,-,N/A,,Overcast,310,2013-01-03 01:55:00
8:15 PM,24.8,19.4,80,30.05,10.0,NW,12.7,-,N/A,,Overcast,310,2013-01-03 02:15:00
8:35 PM,24.8,19.4,80,30.05,10.0,NW,11.5,-,N/A,,Overcast,310,2013-01-03 02:35:00
8:55 PM,24.8,19.4,80,30.05,10.0,NW,11.5,-,N/A,,Overcast,310,2013-01-03 02:55:00
9:15 PM,24.8,19.4,80,30.06,10.0,WNW,10.4,-,N/A,,Overcast,300,2013-01-03 03:15:00
9:35 PM,24.8,19.4,80,30.06,10.0,WNW,11.5,-,N/A,,Overcast,290,2013-01-03 03:35:00
9:55 PM,24.8,19.4,80,30.06,10.0,WNW,15.0,19.6,N/A,,Overcast,300,2013-01-03 03:55:00
10:15 PM,24.8,19.4,80,30.07,10.0,NW,15.0,-,N/A,,Overcast,310,2013-01-03 04:15:00
10:35 PM,24.8,19.4,80,30.08,10.0,WNW,13.8,-,N/A,,Overcast,300,2013-01-03 04:35:00
10:55 PM,24.8,19.4,80,30.09,10.0,NW,15.0,-,N/A,,Overcast,310,2013-01-03 04:55:00
11:15 PM,24.8,19.4,80,30.10,10.0,NNW,18.4,21.9,N/A,,Overcast,330,2013-01-03 05:15:00
11:35 PM,23.0,15.8,74,30.11,10.0,NW,19.6,24.2,N/A,,Overcast,320,2013-01-03 05:35:00
11:55 PM,19.4,14.0,80,30.12,9.0,NNW,20.7,-,N/A,,Overcast,330,2013-01-03 05:55:00